Content
SEND FEEDBACK

Daily
Averages
Monthly
Summary
Afghanistan

GUR-E MAR, AFGHANISTAN


Home > Asia > Afghanistan
Elevation: 1240 feet     Latitude: 36 42N     Longitude: 067 12E

WEATHER
 
SELECT A DAY
Number of Records: 39,489;   Date Range: 5/10/07 - 7/22/14
 
SHARE

PRINT THIS DATA

[ ← Previous Day ]
WEATHER ALMANAC - FEBRUARY 13, 2013
[ Next Day → ]
[ °C ]   °F
Weather ElementAverageHighLow
Temperature54 °F59 °F (12:20 pm)50 °F (5:06 am)
Dewpoint45.7 °F51.8 °F (2:20 pm)41 °F (1:20 am)
Humidity73.9 %82 % (5:06 am)58 % (3:20 am)
Barometer30.03 in30.06 in (1:20 am)30.01 in (3:20 am)
Wind Speed10.3 mph18.4 mph (8:20 am)
Weather ElementAverage
Visibility5.6 mi
Wind DirectionESE (125.8 °)

Weather ElementTotal
Precipitation---
Heating Degree Days10.5 (Base 65)
Growing Degree Days4.5 (Base 50)
Averaged from 24 records on February 13, 2013
WEATHER CONDITIONS BREAKOUT
WIND DIRECTION BREAKOUT
WEATHER BY HOUR - FEBRUARY 13, 2013
[ °C ]   °F
Local TimeTemperatureDewpointHumidityBarometerVisibilityWind DirectionWind SpeedGust SpeedPrecipitationEventsConditions
1:20 AM51.8 °F41.0 °F67 %30.06 in6.2 miSSE (160°)4.6 mphMostly Cloudy
2:20 AM53.6 °F42.8 °F67 %30.04 in6.2 miSouth (180°)5.8 mphMostly Cloudy
3:20 AM55.4 °F41.0 °F58 %30.01 in6.2 miSE (130°)9.2 mphMostly Cloudy
4:20 AM51.8 °F42.8 °F71 %30.01 in6.2 miNW (310°)5.8 mphMostly Cloudy
5:06 AM50.0 °F44.6 °F82 %30.04 in6.2 miNW (310°)3.5 mphRainRain
5:20 AM50.0 °F44.6 °F82 %30.04 in5.0 miVariable2.3 mphRainLight Rain
6:20 AM51.8 °F44.6 °F76 %30.04 in3.7 miSSE (150°)3.5 mphMostly Cloudy
7:20 AM51.8 °F44.6 °F76 %30.04 in3.7 miWSW (240°)5.8 mphRainLight Rain
8:20 AM53.6 °F44.6 °F72 %30.06 in3.7 miSSW (200°)18.4 mphRainLight Rain
9:20 AM53.6 °F44.6 °F72 %30.06 in5.0 miSSE (160°)8.1 mphRainLight Rain
10:20 AM55.4 °F44.6 °F67 %30.06 in5.0 miSSE (150°)5.8 mphMostly Cloudy
11:20 AM55.4 °F48.2 °F77 %30.04 in5.0 miNE (50°)6.9 mphRainLight Rain
12:20 PM59.0 °F50.0 °F72 %30.04 in6.2 miENE (70°)11.5 mphMostly Cloudy
1:20 PM57.2 °F48.2 °F72 %30.01 in6.2 miENE (70°)17.3 mphMostly Cloudy
2:20 PM57.2 °F51.8 °F82 %30.01 in6.2 miEast (90°)12.7 mphMostly Cloudy
3:20 PM57.2 °F50.0 °F77 %30.01 in6.2 miENE (70°)15.0 mphMostly Cloudy
4:20 PM57.2 °F50.0 °F77 %30.01 in6.2 miEast (80°)13.8 mphMostly Cloudy
5:20 PM55.4 °F48.2 °F77 %30.01 in6.2 miEast (80°)16.1 mphMostly Cloudy
6:20 PM53.6 °F48.2 °F82 %30.01 in6.2 miEast (90°)13.8 mphMostly Cloudy
7:20 PM53.6 °F46.4 °F77 %30.04 in6.2 miEast (80°)15.0 mphScattered Clouds
8:20 PM53.6 °F44.6 °F72 %30.04 in6.2 miEast (90°)15.0 mphScattered Clouds
9:20 PM55.4 °F44.6 °F67 %30.01 in6.2 miEast (100°)12.7 mphMostly Cloudy
10:20 PM51.8 °F44.6 °F76 %30.01 in5.6 miEast (80°)15.0 mphScattered Clouds
11:20 PM50.0 °F42.8 °F76 %30.01 in5.6 miEast (80°)9.2 mphScattered Clouds
Hourly data recorded from OAMS, located miles away from Gur-e Mar, Afghanistan







STORIES FROM OUR PARTNERS